Flag for U.S.A. Weather past 2 weeks in San Diego, California, U.S.A.

Now
74 °F

Clear.


Feels Like: 76 °F
Forecast: 71 / 83 °F
Wind: 7 mph from Northwest

Location: San Diego - North Island

Current Time: Aug 28, 2014 at 2:50:24 AM

Latest Report: Aug 28, 2014 at 1:52 AM


Visibility: 10 mi

Pressure: 29.99 "Hg

Humidity: 71%

Dew point: 64 °F

Location of San DiegoLocation

Historic Weather in San Diego — Graph

°F

San Diego temperature yesterday

Maximum temperature yesterday: 83 °F (at 11:52 AM)
Minimum temperature yesterday: 70 °F (at 2:52 AM)
Average temperature yesterday: 77 °F

Past Weeks' High & Low Weather Summary

 TemperatureHumidityPressure
High83 °F (Aug 27, 11:52 AM)97% (Aug 23, 6:52 AM)30.01 "Hg (Aug 23, 6:52 AM)
Low65 °F (Aug 23, 5:52 AM)44% (Aug 27, 9:52 PM)29.80 "Hg (Aug 18, 4:52 PM)
Average73 °F74%29.92 "Hg
* Reported Aug 13 1:52 AM — Aug 28 1:52 AM, San Diego, Weather by CustomWeather, © 2014

Note: Actual official high and low records may vary slightly from our data, if they occured in-between our weather recording intervals... More about our weather records

Advertising

San Diego weather history for previous 24 hours

 ConditionsComfort  
Time TempWeatherWind HumidityBarometerVisibility
1:52 AM
Aug 28
74 °FClear.7 mph71%29.99 "Hg10 mi
12:52 AM75 °FClear.9 mph62%30.00 "Hg10 mi
11:52 PM
Aug 27
77 °FClear.3 mph45%29.99 "Hg10 mi
10:52 PM78 °FClear.9 mph45%29.99 "Hg10 mi
9:52 PM79 °FClear.9 mph44%29.99 "Hg10 mi
8:52 PM78 °FClear.8 mph54%29.98 "Hg10 mi
7:52 PM77 °FSunny.10 mph62%29.97 "Hg10 mi
6:52 PM79 °FSunny.13 mph54%29.96 "Hg10 mi
5:52 PM80 °FPassing clouds.12 mph51%29.96 "Hg10 mi
4:52 PM81 °FPassing clouds.10 mph51%29.96 "Hg10 mi
3:52 PM82 °FPassing clouds.14 mph51%29.96 "Hg10 mi
2:52 PM81 °FPassing clouds.14 mph58%29.98 "Hg10 mi
1:52 PM83 °FPassing clouds.13 mph55%29.99 "Hg10 mi
12:52 PM83 °FPassing clouds.12 mph51%30.00 "Hg10 mi
11:52 AM83 °FPassing clouds.12 mph53%30.01 "Hg10 mi
10:52 AM82 °FSunny.9 mph53%30.01 "Hg10 mi
9:52 AM79 °FPassing clouds.5 mph60%30.01 "Hg10 mi
8:52 AM76 °FPassing clouds.3 mph64%30.01 "Hg10 mi
7:52 AM73 °FPassing clouds.No wind71%30.00 "Hg10 mi
6:52 AM70 °FPassing clouds.6 mph79%30.00 "Hg10 mi
5:52 AM70 °FPassing clouds.5 mph79%29.99 "Hg10 mi
4:52 AM70 °FPassing clouds.8 mph84%29.98 "Hg10 mi
3:52 AM70 °FPassing clouds.3 mph84%29.98 "Hg10 mi
2:52 AM70 °FPassing clouds.6 mph87%29.98 "Hg10 mi
Weather by CustomWeather, © 2014

See weather overviewHow to use our weather pages